Date_Time,Julian_Date,Latitude,Longitude,Instrument_Depth,U,V,Speed,Direction
(yyyy-mm-dd hh:mn:ss UTC),(JD),(+ deg. North),(+ deg. East),(m),(cm/s),(cm/s),(cm/s),(deg True)
1982-05-16 21:00:00 UTC,2445106.375000,29.6650,-93.4789,0073,-14.10,5.13,15.0000,290.0000
1982-05-16 21:30:00 UTC,2445106.395833,29.6650,-93.4789,0073,-13.07,5.02,14.0000,291.0000
1982-05-16 22:00:00 UTC,2445106.416667,29.6650,-93.4789,0073,-12.69,5.92,14.0000,295.0000
1982-05-16 22:30:00 UTC,2445106.437500,29.6650,-93.4789,0073,-13.59,6.34,15.0000,295.0000
1982-05-16 23:00:00 UTC,2445106.458333,29.6650,-93.4789,0073,-14.73,6.25,16.0000,293.0000
1982-05-16 23:30:00 UTC,2445106.479167,29.6650,-93.4789,0073,-13.99,7.76,16.0000,299.0000
1982-05-17 00:00:00 UTC,2445106.500000,29.6650,-93.4789,0073,-10.40,9.37,14.0000,312.0000
1982-05-17 00:30:00 UTC,2445106.520833,29.6650,-93.4789,0073,-4.65,9.97,11.0000,335.0000
1982-05-17 01:00:00 UTC,2445106.541667,29.6650,-93.4789,0073,0.00,0.00,0.0000,0.0000
1982-05-17 01:30:00 UTC,2445106.562500,29.6650,-93.4789,0073,1.21,4.85,5.0000,14.0000
1982-05-17 02:00:00 UTC,2445106.583333,29.6650,-93.4789,0073,0.14,2.00,2.0000,4.0000
1982-05-17 02:30:00 UTC,2445106.604167,29.6650,-93.4789,0073,-2.91,0.73,3.0000,284.0000
1982-05-17 03:00:00 UTC,2445106.625000,29.6650,-93.4789,0073,-9.00,0.16,9.0000,271.0000
1982-05-17 03:30:00 UTC,2445106.645833,29.6650,-93.4789,0073,-14.99,0.52,15.0000,272.0000
1982-05-17 04:00:00 UTC,2445106.666667,29.6650,-93.4789,0073,-17.93,1.57,18.0000,275.0000
1982-05-17 04:30:00 UTC,2445106.687500,29.6650,-93.4789,0073,-16.94,1.48,17.0000,275.0000
1982-05-17 05:00:00 UTC,2445106.708333,29.6650,-93.4789,0073,-17.00,0.30,17.0000,271.0000
1982-05-17 05:30:00 UTC,2445106.729167,29.6650,-93.4789,0073,-17.87,-2.19,18.0000,263.0000
1982-05-17 06:00:00 UTC,2445106.750000,29.6650,-93.4789,0073,-19.81,-2.78,20.0000,262.0000
1982-05-17 06:30:00 UTC,2445106.770833,29.6650,-93.4789,0073,-18.99,-0.66,19.0000,268.0000
1982-05-17 07:00:00 UTC,2445106.791667,29.6650,-93.4789,0073,-13.86,1.95,14.0000,278.0000
1982-05-17 07:30:00 UTC,2445106.812500,29.6650,-93.4789,0073,-5.59,4.21,7.0000,307.0000
1982-05-17 08:00:00 UTC,2445106.833333,29.6650,-93.4789,0073,-2.19,4.49,5.0000,334.0000
1982-05-17 08:30:00 UTC,2445106.854167,29.6650,-93.4789,0073,-5.80,1.55,6.0000,285.0000
1982-05-17 09:00:00 UTC,2445106.875000,29.6650,-93.4789,0073,-10.92,-1.34,11.0000,263.0000
1982-05-17 09:30:00 UTC,2445106.895833,29.6650,-93.4789,0073,-10.34,-3.76,11.0000,250.0000
1982-05-17 10:00:00 UTC,2445106.916667,29.6650,-93.4789,0073,-5.94,-3.71,7.0000,238.0000
1982-05-17 10:30:00 UTC,2445106.937500,29.6650,-93.4789,0073,-1.26,-1.55,2.0000,219.0000
1982-05-17 11:00:00 UTC,2445106.958333,29.6650,-93.4789,0073,2.98,-0.31,3.0000,96.0000
1982-05-17 11:30:00 UTC,2445106.979167,29.6650,-93.4789,0073,7.98,0.56,8.0000,86.0000
1982-05-17 12:00:00 UTC,2445107.000000,29.6650,-93.4789,0073,11.93,1.25,12.0000,84.0000
1982-05-17 12:30:00 UTC,2445107.020833,29.6650,-93.4789,0073,12.87,1.81,13.0000,82.0000
1982-05-17 13:00:00 UTC,2445107.041667,29.6650,-93.4789,0073,12.87,1.81,13.0000,82.0000
1982-05-17 13:30:00 UTC,2445107.062500,29.6650,-93.4789,0073,15.00,0.26,15.0000,89.0000
1982-05-17 14:00:00 UTC,2445107.083333,29.6650,-93.4789,0073,17.90,-1.88,18.0000,96.0000
1982-05-17 14:30:00 UTC,2445107.104167,29.6650,-93.4789,0073,16.69,-3.24,17.0000,101.0000
1982-05-17 15:00:00 UTC,2445107.125000,29.6650,-93.4789,0073,13.52,-3.62,14.0000,105.0000
1982-05-17 15:30:00 UTC,2445107.145833,29.6650,-93.4789,0073,12.36,-4.02,13.0000,108.0000
1982-05-17 16:00:00 UTC,2445107.166667,29.6650,-93.4789,0073,12.05,-4.87,13.0000,112.0000
1982-05-17 16:30:00 UTC,2445107.187500,29.6650,-93.4789,0073,11.88,-5.29,13.0000,114.0000
1982-05-17 17:00:00 UTC,2445107.208333,29.6650,-93.4789,0073,12.12,-7.00,14.0000,120.0000
1982-05-17 17:30:00 UTC,2445107.229167,29.6650,-93.4789,0073,11.66,-9.44,15.0000,129.0000
1982-05-17 18:00:00 UTC,2445107.250000,29.6650,-93.4789,0073,9.55,-10.24,14.0000,137.0000
1982-05-17 18:30:00 UTC,2445107.270833,29.6650,-93.4789,0073,5.16,-9.71,11.0000,152.0000
1982-05-17 19:00:00 UTC,2445107.291667,29.6650,-93.4789,0073,1.56,-8.86,9.0000,170.0000
1982-05-17 19:30:00 UTC,2445107.312500,29.6650,-93.4789,0073,1.10,-8.93,9.0000,173.0000
1982-05-17 20:00:00 UTC,2445107.333333,29.6650,-93.4789,0073,1.56,-8.86,9.0000,170.0000
1982-05-17 20:30:00 UTC,2445107.354167,29.6650,-93.4789,0073,0.63,-8.98,9.0000,176.0000
1982-05-17 21:00:00 UTC,2445107.375000,29.6650,-93.4789,0073,-2.74,-6.44,7.0000,203.0000
1982-05-17 21:30:00 UTC,2445107.395833,29.6650,-93.4789,0073,-7.56,-2.60,8.0000,251.0000
1982-05-17 22:00:00 UTC,2445107.416667,29.6650,-93.4789,0073,-12.84,-2.03,13.0000,261.0000
1982-05-17 22:30:00 UTC,2445107.437500,29.6650,-93.4789,0073,-15.65,-3.33,16.0000,258.0000
1982-05-17 23:00:00 UTC,2445107.458333,29.6650,-93.4789,0073,-15.71,-3.05,16.0000,259.0000
1982-05-17 23:30:00 UTC,2445107.479167,29.6650,-93.4789,0073,-15.94,-1.39,16.0000,265.0000
1982-05-18 00:00:00 UTC,2445107.500000,29.6650,-93.4789,0073,-16.00,0.28,16.0000,271.0000
1982-05-18 00:30:00 UTC,2445107.520833,29.6650,-93.4789,0073,-14.89,1.83,15.0000,277.0000
1982-05-18 01:00:00 UTC,2445107.541667,29.6650,-93.4789,0073,-13.16,4.79,14.0000,290.0000
1982-05-18 01:30:00 UTC,2445107.562500,29.6650,-93.4789,0073,-12.14,8.82,15.0000,306.0000
1982-05-18 02:00:00 UTC,2445107.583333,29.6650,-93.4789,0073,-12.43,11.59,17.0000,313.0000
1982-05-18 02:30:00 UTC,2445107.604167,29.6650,-93.4789,0073,-13.40,10.47,17.0000,308.0000
1982-05-18 03:00:00 UTC,2445107.625000,29.6650,-93.4789,0073,-15.10,9.80,18.0000,303.0000
1982-05-18 03:30:00 UTC,2445107.645833,29.6650,-93.4789,0073,-15.26,9.54,18.0000,302.0000
1982-05-18 04:00:00 UTC,2445107.666667,29.6650,-93.4789,0073,-13.57,8.48,16.0000,302.0000
1982-05-18 04:30:00 UTC,2445107.687500,29.6650,-93.4789,0073,-12.22,4.45,13.0000,290.0000
1982-05-18 05:00:00 UTC,2445107.708333,29.6650,-93.4789,0073,-13.83,2.19,14.0000,279.0000
1982-05-18 05:30:00 UTC,2445107.729167,29.6650,-93.4789,0073,-13.86,1.95,14.0000,278.0000
1982-05-18 06:00:00 UTC,2445107.750000,29.6650,-93.4789,0073,-11.00,-0.00,11.0000,270.0000
1982-05-18 06:30:00 UTC,2445107.770833,29.6650,-93.4789,0073,-10.76,-2.29,11.0000,258.0000
1982-05-18 07:00:00 UTC,2445107.791667,29.6650,-93.4789,0073,-15.52,-3.87,16.0000,256.0000
1982-05-18 07:30:00 UTC,2445107.812500,29.6650,-93.4789,0073,-19.70,-3.47,20.0000,260.0000
1982-05-18 08:00:00 UTC,2445107.833333,29.6650,-93.4789,0073,-21.84,-2.68,22.0000,263.0000
1982-05-18 08:30:00 UTC,2445107.854167,29.6650,-93.4789,0073,-21.79,-3.06,22.0000,262.0000
1982-05-18 09:00:00 UTC,2445107.875000,29.6650,-93.4789,0073,-21.97,-1.15,22.0000,267.0000
1982-05-18 09:30:00 UTC,2445107.895833,29.6650,-93.4789,0073,-20.92,1.83,21.0000,275.0000
1982-05-18 10:00:00 UTC,2445107.916667,29.6650,-93.4789,0073,-16.96,1.19,17.0000,274.0000
1982-05-18 10:30:00 UTC,2445107.937500,29.6650,-93.4789,0073,-13.00,-0.00,13.0000,270.0000
1982-05-18 11:00:00 UTC,2445107.958333,29.6650,-93.4789,0073,-13.00,-0.23,13.0000,269.0000
1982-05-18 11:30:00 UTC,2445107.979167,29.6650,-93.4789,0073,-13.97,-0.98,14.0000,266.0000
1982-05-18 12:00:00 UTC,2445108.000000,29.6650,-93.4789,0073,-12.95,-1.13,13.0000,265.0000
1982-05-18 12:30:00 UTC,2445108.020833,29.6650,-93.4789,0073,-11.99,-0.42,12.0000,268.0000
1982-05-18 13:00:00 UTC,2445108.041667,29.6650,-93.4789,0073,-11.99,-0.42,12.0000,268.0000
1982-05-18 13:30:00 UTC,2445108.062500,29.6650,-93.4789,0073,-12.00,-0.00,12.0000,270.0000
1982-05-18 14:00:00 UTC,2445108.083333,29.6650,-93.4789,0073,-11.88,1.67,12.0000,278.0000
1982-05-18 14:30:00 UTC,2445108.104167,29.6650,-93.4789,0073,-13.79,2.43,14.0000,280.0000
1982-05-18 15:00:00 UTC,2445108.125000,29.6650,-93.4789,0073,-17.78,2.82,18.0000,279.0000
1982-05-18 15:30:00 UTC,2445108.145833,29.6650,-93.4789,0073,-20.54,4.37,21.0000,282.0000
1982-05-18 16:00:00 UTC,2445108.166667,29.6650,-93.4789,0073,-19.41,4.84,20.0000,284.0000
1982-05-18 16:30:00 UTC,2445108.187500,29.6650,-93.4789,0073,-17.30,4.96,18.0000,286.0000
1982-05-18 17:00:00 UTC,2445108.208333,29.6650,-93.4789,0073,-17.21,5.26,18.0000,287.0000
1982-05-18 17:30:00 UTC,2445108.229167,29.6650,-93.4789,0073,-18.17,5.56,19.0000,287.0000
1982-05-18 18:00:00 UTC,2445108.250000,29.6650,-93.4789,0073,-16.42,4.40,17.0000,285.0000
1982-05-18 18:30:00 UTC,2445108.270833,29.6650,-93.4789,0073,-12.97,0.91,13.0000,274.0000
1982-05-18 19:00:00 UTC,2445108.291667,29.6650,-93.4789,0073,-12.87,-1.81,13.0000,262.0000
1982-05-18 19:30:00 UTC,2445108.312500,29.6650,-93.4789,0073,-13.74,-2.67,14.0000,259.0000
1982-05-18 20:00:00 UTC,2445108.333333,29.6650,-93.4789,0073,-15.45,-4.14,16.0000,255.0000
1982-05-18 20:30:00 UTC,2445108.354167,29.6650,-93.4789,0073,-14.10,-5.13,15.0000,250.0000
1982-05-18 21:00:00 UTC,2445108.375000,29.6650,-93.4789,0073,-11.68,-5.70,13.0000,244.0000
1982-05-18 21:30:00 UTC,2445108.395833,29.6650,-93.4789,0073,-8.30,-7.22,11.0000,229.0000
1982-05-18 22:00:00 UTC,2445108.416667,29.6650,-93.4789,0073,-7.05,-9.71,12.0000,216.0000
1982-05-18 22:30:00 UTC,2445108.437500,29.6650,-93.4789,0073,-7.83,-11.61,14.0000,214.0000
1982-05-18 23:00:00 UTC,2445108.458333,29.6650,-93.4789,0073,-9.03,-11.98,15.0000,217.0000
1982-05-18 23:30:00 UTC,2445108.479167,29.6650,-93.4789,0073,-9.03,-11.98,15.0000,217.0000
1982-05-19 00:00:00 UTC,2445108.500000,29.6650,-93.4789,0073,-8.71,-13.42,16.0000,213.0000
1982-05-19 00:30:00 UTC,2445108.520833,29.6650,-93.4789,0073,-8.71,-13.42,16.0000,213.0000
1982-05-19 01:00:00 UTC,2445108.541667,29.6650,-93.4789,0073,-9.18,-10.57,14.0000,221.0000
1982-05-19 01:30:00 UTC,2445108.562500,29.6650,-93.4789,0073,-12.99,-7.50,15.0000,240.0000
1982-05-19 02:00:00 UTC,2445108.583333,29.6650,-93.4789,0073,-20.28,-5.44,21.0000,255.0000
1982-05-19 02:30:00 UTC,2445108.604167,29.6650,-93.4789,0073,-25.33,-5.85,26.0000,257.0000
1982-05-19 03:00:00 UTC,2445108.625000,29.6650,-93.4789,0073,-27.39,-5.82,28.0000,258.0000
1982-05-19 03:30:00 UTC,2445108.645833,29.6650,-93.4789,0073,-26.96,-1.41,27.0000,267.0000
1982-05-19 04:00:00 UTC,2445108.666667,29.6650,-93.4789,0073,-25.00,0.44,25.0000,271.0000
1982-05-19 04:30:00 UTC,2445108.687500,29.6650,-93.4789,0073,-19.95,-1.40,20.0000,266.0000
1982-05-19 05:00:00 UTC,2445108.708333,29.6650,-93.4789,0073,-15.98,-0.84,16.0000,267.0000
1982-05-19 05:30:00 UTC,2445108.729167,29.6650,-93.4789,0073,-13.97,-0.98,14.0000,266.0000
1982-05-19 06:00:00 UTC,2445108.750000,29.6650,-93.4789,0073,-13.74,-2.67,14.0000,259.0000
1982-05-19 06:30:00 UTC,2445108.770833,29.6650,-93.4789,0073,-12.50,-3.58,13.0000,254.0000
1982-05-19 07:00:00 UTC,2445108.791667,29.6650,-93.4789,0073,-7.19,-3.51,8.0000,244.0000
1982-05-19 07:30:00 UTC,2445108.812500,29.6650,-93.4789,0073,0.14,-4.00,4.0000,178.0000
1982-05-19 08:00:00 UTC,2445108.833333,29.6650,-93.4789,0073,6.89,-5.79,9.0000,130.0000
1982-05-19 08:30:00 UTC,2445108.854167,29.6650,-93.4789,0073,11.18,-8.43,14.0000,127.0000
1982-05-19 09:00:00 UTC,2445108.875000,29.6650,-93.4789,0073,13.99,-7.76,16.0000,119.0000
1982-05-19 09:30:00 UTC,2445108.895833,29.6650,-93.4789,0073,15.59,-3.60,16.0000,103.0000
1982-05-19 10:00:00 UTC,2445108.916667,29.6650,-93.4789,0073,15.98,0.84,16.0000,87.0000
1982-05-19 10:30:00 UTC,2445108.937500,29.6650,-93.4789,0073,15.71,3.05,16.0000,79.0000
1982-05-19 11:00:00 UTC,2445108.958333,29.6650,-93.4789,0073,14.42,4.13,15.0000,74.0000
1982-05-19 11:30:00 UTC,2445108.979167,29.6650,-93.4789,0073,12.98,5.24,14.0000,68.0000
1982-05-19 12:00:00 UTC,2445109.000000,29.6650,-93.4789,0073,13.31,4.33,14.0000,72.0000
1982-05-19 12:30:00 UTC,2445109.020833,29.6650,-93.4789,0073,13.52,3.62,14.0000,75.0000
1982-05-19 13:00:00 UTC,2445109.041667,29.6650,-93.4789,0073,12.69,5.92,14.0000,65.0000
1982-05-19 13:30:00 UTC,2445109.062500,29.6650,-93.4789,0073,10.57,9.18,14.0000,49.0000
1982-05-19 14:00:00 UTC,2445109.083333,29.6650,-93.4789,0073,8.60,12.29,15.0000,35.0000
1982-05-19 14:30:00 UTC,2445109.104167,29.6650,-93.4789,0073,7.76,13.99,16.0000,29.0000
1982-05-19 15:00:00 UTC,2445109.125000,29.6650,-93.4789,0073,5.92,12.69,14.0000,25.0000
1982-05-19 15:30:00 UTC,2445109.145833,29.6650,-93.4789,0073,4.88,10.96,12.0000,24.0000
1982-05-19 16:00:00 UTC,2445109.166667,29.6650,-93.4789,0073,4.23,9.06,10.0000,25.0000
1982-05-19 16:30:00 UTC,2445109.187500,29.6650,-93.4789,0073,3.25,7.31,8.0000,24.0000
1982-05-19 17:00:00 UTC,2445109.208333,29.6650,-93.4789,0073,2.85,6.39,7.0000,24.0000
1982-05-19 17:30:00 UTC,2445109.229167,29.6650,-93.4789,0073,2.19,4.49,5.0000,26.0000
1982-05-19 18:00:00 UTC,2445109.250000,29.6650,-93.4789,0073,2.80,4.15,5.0000,34.0000
1982-05-19 18:30:00 UTC,2445109.270833,29.6650,-93.4789,0073,4.46,4.01,6.0000,48.0000
1982-05-19 19:00:00 UTC,2445109.291667,29.6650,-93.4789,0073,4.46,2.27,5.0000,63.0000
1982-05-19 19:30:00 UTC,2445109.312500,29.6650,-93.4789,0073,4.91,0.95,5.0000,79.0000
1982-05-19 20:00:00 UTC,2445109.333333,29.6650,-93.4789,0073,3.99,0.28,4.0000,86.0000
1982-05-19 20:30:00 UTC,2445109.354167,29.6650,-93.4789,0073,3.98,0.35,4.0000,85.0000
1982-05-19 21:00:00 UTC,2445109.375000,29.6650,-93.4789,0073,3.00,0.16,3.0000,87.0000
1982-05-19 21:30:00 UTC,2445109.395833,29.6650,-93.4789,0073,0.87,-0.50,1.0000,120.0000
1982-05-19 22:00:00 UTC,2445109.416667,29.6650,-93.4789,0073,-0.99,0.10,1.0000,276.0000
1982-05-19 22:30:00 UTC,2445109.437500,29.6650,-93.4789,0073,0.00,0.00,0.0000,0.0000
1982-05-19 23:00:00 UTC,2445109.458333,29.6650,-93.4789,0073,1.68,2.49,3.0000,34.0000
1982-05-19 23:30:00 UTC,2445109.479167,29.6650,-93.4789,0073,2.57,3.06,4.0000,40.0000
1982-05-20 00:00:00 UTC,2445109.500000,29.6650,-93.4789,0073,1.63,2.52,3.0000,33.0000
1982-05-20 00:30:00 UTC,2445109.520833,29.6650,-93.4789,0073,-0.03,2.00,2.0000,359.0000
1982-05-20 01:00:00 UTC,2445109.541667,29.6650,-93.4789,0073,-1.55,2.57,3.0000,329.0000
1982-05-20 01:30:00 UTC,2445109.562500,29.6650,-93.4789,0073,-3.06,2.57,4.0000,310.0000
1982-05-20 02:00:00 UTC,2445109.583333,29.6650,-93.4789,0073,-5.09,3.18,6.0000,302.0000
1982-05-20 02:30:00 UTC,2445109.604167,29.6650,-93.4789,0073,-7.06,3.76,8.0000,298.0000
1982-05-20 03:00:00 UTC,2445109.625000,29.6650,-93.4789,0073,-8.91,4.54,10.0000,297.0000
1982-05-20 03:30:00 UTC,2445109.645833,29.6650,-93.4789,0073,-11.14,6.70,13.0000,301.0000
1982-05-20 04:00:00 UTC,2445109.666667,29.6650,-93.4789,0073,-11.87,7.42,14.0000,302.0000
1982-05-20 04:30:00 UTC,2445109.687500,29.6650,-93.4789,0073,-12.58,6.14,14.0000,296.0000
1982-05-20 05:00:00 UTC,2445109.708333,29.6650,-93.4789,0073,-13.39,4.09,14.0000,287.0000
1982-05-20 05:30:00 UTC,2445109.729167,29.6650,-93.4789,0073,-14.89,1.83,15.0000,277.0000
1982-05-20 06:00:00 UTC,2445109.750000,29.6650,-93.4789,0073,-17.00,-0.30,17.0000,269.0000
1982-05-20 06:30:00 UTC,2445109.770833,29.6650,-93.4789,0073,-18.82,-2.64,19.0000,262.0000
1982-05-20 07:00:00 UTC,2445109.791667,29.6650,-93.4789,0073,-19.49,-4.50,20.0000,257.0000
1982-05-20 07:30:00 UTC,2445109.812500,29.6650,-93.4789,0073,-18.07,-5.87,19.0000,252.0000
1982-05-20 08:00:00 UTC,2445109.833333,29.6650,-93.4789,0073,-15.87,-6.09,17.0000,249.0000
1982-05-20 08:30:00 UTC,2445109.854167,29.6650,-93.4789,0073,-12.58,-6.14,14.0000,244.0000
1982-05-20 09:00:00 UTC,2445109.875000,29.6650,-93.4789,0073,-12.47,-6.36,14.0000,243.0000
1982-05-20 09:30:00 UTC,2445109.895833,29.6650,-93.4789,0073,-15.87,-6.09,17.0000,249.0000
1982-05-20 10:00:00 UTC,2445109.916667,29.6650,-93.4789,0073,-19.32,-5.18,20.0000,255.0000
1982-05-20 10:30:00 UTC,2445109.937500,29.6650,-93.4789,0073,-21.60,-4.20,22.0000,259.0000
1982-05-20 11:00:00 UTC,2445109.958333,29.6650,-93.4789,0073,-21.92,-1.92,22.0000,265.0000
1982-05-20 11:30:00 UTC,2445109.979167,29.6650,-93.4789,0073,-23.97,1.26,24.0000,273.0000
1982-05-20 12:00:00 UTC,2445110.000000,29.6650,-93.4789,0073,-26.74,3.76,27.0000,278.0000
1982-05-20 12:30:00 UTC,2445110.020833,29.6650,-93.4789,0073,-28.56,5.04,29.0000,280.0000
1982-05-20 13:00:00 UTC,2445110.041667,29.6650,-93.4789,0073,-28.56,5.04,29.0000,280.0000
1982-05-20 13:30:00 UTC,2445110.062500,29.6650,-93.4789,0073,-25.86,2.72,26.0000,276.0000
1982-05-20 14:00:00 UTC,2445110.083333,29.6650,-93.4789,0073,-22.87,2.40,23.0000,276.0000
1982-05-20 14:30:00 UTC,2445110.104167,29.6650,-93.4789,0073,-19.32,5.18,20.0000,285.0000
1982-05-20 15:00:00 UTC,2445110.125000,29.6650,-93.4789,0073,-17.36,7.73,19.0000,294.0000
1982-05-20 15:30:00 UTC,2445110.145833,29.6650,-93.4789,0073,-15.41,7.18,17.0000,295.0000
1982-05-20 16:00:00 UTC,2445110.166667,29.6650,-93.4789,0073,-13.16,4.79,14.0000,290.0000
1982-05-20 16:30:00 UTC,2445110.187500,29.6650,-93.4789,0073,-12.43,3.80,13.0000,287.0000
1982-05-20 17:00:00 UTC,2445110.208333,29.6650,-93.4789,0073,-12.89,5.47,14.0000,293.0000
1982-05-20 17:30:00 UTC,2445110.229167,29.6650,-93.4789,0073,-14.34,4.39,15.0000,287.0000
1982-05-20 18:00:00 UTC,2445110.250000,29.6650,-93.4789,0073,-15.91,-1.67,16.0000,264.0000
1982-05-20 18:30:00 UTC,2445110.270833,29.6650,-93.4789,0073,-14.50,-6.76,16.0000,245.0000
1982-05-20 19:00:00 UTC,2445110.291667,29.6650,-93.4789,0073,-9.66,-8.70,13.0000,228.0000
1982-05-20 19:30:00 UTC,2445110.312500,29.6650,-93.4789,0073,-4.38,-8.99,10.0000,206.0000
1982-05-20 20:00:00 UTC,2445110.333333,29.6650,-93.4789,0073,-0.42,-7.99,8.0000,183.0000
1982-05-20 20:30:00 UTC,2445110.354167,29.6650,-93.4789,0073,2.33,-8.69,9.0000,165.0000
1982-05-20 21:00:00 UTC,2445110.375000,29.6650,-93.4789,0073,5.69,-12.79,14.0000,156.0000
1982-05-20 21:30:00 UTC,2445110.395833,29.6650,-93.4789,0073,7.98,-15.01,17.0000,152.0000
1982-05-20 22:00:00 UTC,2445110.416667,29.6650,-93.4789,0073,8.92,-16.78,19.0000,152.0000
1982-05-20 22:30:00 UTC,2445110.437500,29.6650,-93.4789,0073,9.72,-20.85,23.0000,155.0000
1982-05-20 23:00:00 UTC,2445110.458333,29.6650,-93.4789,0073,9.38,-22.09,24.0000,157.0000
1982-05-20 23:30:00 UTC,2445110.479167,29.6650,-93.4789,0073,8.88,-19.03,21.0000,155.0000
1982-05-21 00:00:00 UTC,2445110.500000,29.6650,-93.4789,0073,9.00,-15.59,18.0000,150.0000
1982-05-21 00:30:00 UTC,2445110.520833,29.6650,-93.4789,0073,9.44,-11.66,15.0000,141.0000
1982-05-21 01:00:00 UTC,2445110.541667,29.6650,-93.4789,0073,10.29,-6.18,12.0000,121.0000
1982-05-21 01:30:00 UTC,2445110.562500,29.6650,-93.4789,0073,10.98,-0.58,11.0000,93.0000
1982-05-21 02:00:00 UTC,2445110.583333,29.6650,-93.4789,0073,11.93,1.25,12.0000,84.0000
1982-05-21 02:30:00 UTC,2445110.604167,29.6650,-93.4789,0073,12.99,0.45,13.0000,88.0000
1982-05-21 03:00:00 UTC,2445110.625000,29.6650,-93.4789,0073,11.91,-1.46,12.0000,97.0000
1982-05-21 03:30:00 UTC,2445110.645833,29.6650,-93.4789,0073,10.72,-2.47,11.0000,103.0000
1982-05-21 04:00:00 UTC,2445110.666667,29.6650,-93.4789,0073,9.88,-1.56,10.0000,99.0000
1982-05-21 04:30:00 UTC,2445110.687500,29.6650,-93.4789,0073,8.86,-1.56,9.0000,100.0000
1982-05-21 05:00:00 UTC,2445110.708333,29.6650,-93.4789,0073,6.93,-4.00,8.0000,120.0000
1982-05-21 05:30:00 UTC,2445110.729167,29.6650,-93.4789,0073,4.70,-6.47,8.0000,144.0000
1982-05-21 06:00:00 UTC,2445110.750000,29.6650,-93.4789,0073,-1.56,-3.68,4.0000,203.0000
1982-05-21 06:30:00 UTC,2445110.770833,29.6650,-93.4789,0073,-7.73,-2.07,8.0000,255.0000
1982-05-21 07:00:00 UTC,2445110.791667,29.6650,-93.4789,0073,-11.48,-3.51,12.0000,253.0000
1982-05-21 07:30:00 UTC,2445110.812500,29.6650,-93.4789,0073,-16.07,-5.53,17.0000,251.0000
1982-05-21 08:00:00 UTC,2445110.833333,29.6650,-93.4789,0073,-20.08,-6.14,21.0000,253.0000
1982-05-21 08:30:00 UTC,2445110.854167,29.6650,-93.4789,0073,-22.50,-4.78,23.0000,258.0000
1982-05-21 09:00:00 UTC,2445110.875000,29.6650,-93.4789,0073,-22.72,-3.60,23.0000,261.0000
1982-05-21 09:30:00 UTC,2445110.895833,29.6650,-93.4789,0073,-20.61,-4.01,21.0000,259.0000
1982-05-21 10:00:00 UTC,2445110.916667,29.6650,-93.4789,0073,-19.56,-4.16,20.0000,258.0000
1982-05-21 10:30:00 UTC,2445110.937500,29.6650,-93.4789,0073,-20.68,-3.65,21.0000,260.0000
1982-05-21 11:00:00 UTC,2445110.958333,29.6650,-93.4789,0073,-20.74,-3.29,21.0000,261.0000
1982-05-21 11:30:00 UTC,2445110.979167,29.6650,-93.4789,0073,-19.92,-1.74,20.0000,265.0000
1982-05-21 12:00:00 UTC,2445111.000000,29.6650,-93.4789,0073,-18.95,1.33,19.0000,274.0000
1982-05-21 12:30:00 UTC,2445111.020833,29.6650,-93.4789,0073,-17.61,3.74,18.0000,282.0000
1982-05-21 13:00:00 UTC,2445111.041667,29.6650,-93.4789,0073,-16.42,4.40,17.0000,285.0000
1982-05-21 13:30:00 UTC,2445111.062500,29.6650,-93.4789,0073,-15.30,4.68,16.0000,287.0000
1982-05-21 14:00:00 UTC,2445111.083333,29.6650,-93.4789,0073,-13.70,6.10,15.0000,294.0000
1982-05-21 14:30:00 UTC,2445111.104167,29.6650,-93.4789,0073,-11.33,8.23,14.0000,306.0000
1982-05-21 15:00:00 UTC,2445111.125000,29.6650,-93.4789,0073,-6.62,8.78,11.0000,323.0000
1982-05-21 15:30:00 UTC,2445111.145833,29.6650,-93.4789,0073,-3.95,8.09,9.0000,334.0000
1982-05-21 16:00:00 UTC,2445111.166667,29.6650,-93.4789,0073,-3.13,7.36,8.0000,337.0000
1982-05-21 16:30:00 UTC,2445111.187500,29.6650,-93.4789,0073,-2.62,6.49,7.0000,338.0000
1982-05-21 17:00:00 UTC,2445111.208333,29.6650,-93.4789,0073,-2.25,5.56,6.0000,338.0000
1982-05-21 17:30:00 UTC,2445111.229167,29.6650,-93.4789,0073,-2.00,3.46,4.0000,330.0000
1982-05-21 18:00:00 UTC,2445111.250000,29.6650,-93.4789,0073,-2.19,2.05,3.0000,313.0000
1982-05-21 18:30:00 UTC,2445111.270833,29.6650,-93.4789,0073,-1.96,0.42,2.0000,282.0000
1982-05-21 19:00:00 UTC,2445111.291667,29.6650,-93.4789,0073,-0.91,-1.78,2.0000,207.0000
1982-05-21 19:30:00 UTC,2445111.312500,29.6650,-93.4789,0073,-0.97,-3.88,4.0000,194.0000
1982-05-21 20:00:00 UTC,2445111.333333,29.6650,-93.4789,0073,-2.18,-3.35,4.0000,213.0000
1982-05-21 20:30:00 UTC,2445111.354167,29.6650,-93.4789,0073,-3.54,-3.54,5.0000,225.0000
1982-05-21 21:00:00 UTC,2445111.375000,29.6650,-93.4789,0073,-3.44,-4.91,6.0000,215.0000
1982-05-21 21:30:00 UTC,2445111.395833,29.6650,-93.4789,0073,-2.05,-6.69,7.0000,197.0000
1982-05-21 22:00:00 UTC,2445111.416667,29.6650,-93.4789,0073,-0.94,-8.95,9.0000,186.0000
1982-05-21 22:30:00 UTC,2445111.437500,29.6650,-93.4789,0073,-0.35,-9.99,10.0000,182.0000
1982-05-21 23:00:00 UTC,2445111.458333,29.6650,-93.4789,0073,0.17,-10.00,10.0000,179.0000
1982-05-21 23:30:00 UTC,2445111.479167,29.6650,-93.4789,0073,1.25,-8.91,9.0000,172.0000
1982-05-22 00:00:00 UTC,2445111.500000,29.6650,-93.4789,0073,2.54,-5.44,6.0000,155.0000
1982-05-22 00:30:00 UTC,2445111.520833,29.6650,-93.4789,0073,3.24,-2.35,4.0000,126.0000
1982-05-22 01:00:00 UTC,2445111.541667,29.6650,-93.4789,0073,1.89,2.33,3.0000,39.0000
1982-05-22 01:30:00 UTC,2445111.562500,29.6650,-93.4789,0073,0.24,7.00,7.0000,2.0000
1982-05-22 02:00:00 UTC,2445111.583333,29.6650,-93.4789,0073,-0.17,10.00,10.0000,359.0000
1982-05-22 02:30:00 UTC,2445111.604167,29.6650,-93.4789,0073,-0.38,10.99,11.0000,358.0000
1982-05-22 03:00:00 UTC,2445111.625000,29.6650,-93.4789,0073,-1.88,11.85,12.0000,351.0000
1982-05-22 03:30:00 UTC,2445111.645833,29.6650,-93.4789,0073,-4.09,13.39,14.0000,343.0000
1982-05-22 04:00:00 UTC,2445111.666667,29.6650,-93.4789,0073,-6.76,14.50,16.0000,335.0000
1982-05-22 04:30:00 UTC,2445111.687500,29.6650,-93.4789,0073,-9.54,15.26,18.0000,328.0000
1982-05-22 05:00:00 UTC,2445111.708333,29.6650,-93.4789,0073,-9.51,14.09,17.0000,326.0000
1982-05-22 05:30:00 UTC,2445111.729167,29.6650,-93.4789,0073,-8.76,14.57,17.0000,329.0000
1982-05-22 06:00:00 UTC,2445111.750000,29.6650,-93.4789,0073,-8.48,13.57,16.0000,328.0000
1982-05-22 06:30:00 UTC,2445111.770833,29.6650,-93.4789,0073,-10.28,12.26,16.0000,320.0000
1982-05-22 07:00:00 UTC,2445111.791667,29.6650,-93.4789,0073,-11.51,11.11,16.0000,314.0000
1982-05-22 07:30:00 UTC,2445111.812500,29.6650,-93.4789,0073,-11.32,9.84,15.0000,311.0000
1982-05-22 08:00:00 UTC,2445111.833333,29.6650,-93.4789,0073,-10.38,7.82,13.0000,307.0000
1982-05-22 08:30:00 UTC,2445111.854167,29.6650,-93.4789,0073,-9.43,5.67,11.0000,301.0000
1982-05-22 09:00:00 UTC,2445111.875000,29.6650,-93.4789,0073,-8.83,4.69,10.0000,298.0000
1982-05-22 09:30:00 UTC,2445111.895833,29.6650,-93.4789,0073,-9.14,4.07,10.0000,294.0000